User: anonymous   Login
Location: Unspecified
(0.0000°N, 0.0000°E)
Time: 07:54:57
(UTC+02:00)
Language:

GP-B - Orbit

View from above orbital plane
View from above orbital plane
View from above satellite
View from above satellite

Ground track
Ground track

The orbit data is extracted from the following two-line orbital elements,

1 28230U 04014A   16151.48694013  .00000233  00000-0  29729-4 0  9994
2 28230  89.8591 128.9895 0003437  89.8298 270.3319 14.78425186652554
Epoch (UTC): 30 May 2016 11:41:11
Eccentricity: 0.0003437
inclination: 89.8591°
perigee height: 632 km
apogee height: 637 km
right ascension of ascending node: 128.9895°
argument of perigee: 89.8298°
revolutions per day: 14.78425186
mean anomaly at epoch: 270.3319°
orbit number at epoch: 65255

The dashed part of the orbit path shows where the satellite is in the earth's shadow,  

DLR